Flag for Israel Weather past 2 weeks in Bat Yam, Israel

Now
81 °F

Passing clouds.


Feels Like: 85 °F
Forecast: 76 / 87 °F
Wind: 3 mph from North

Location: Dov Airport

Current Time: Jul 29, 2014 at 12:38:59 AM

Latest Report: Jul 28, 2014 at 10:50 PM


Visibility: N/A

Pressure: 29.83 "Hg

Humidity: 79%

Dew point: 73 °F

Location of Bat YamLocation

Historic Weather in Bat Yam — Graph

°F

Bat Yam temperature yesterday

Maximum temperature yesterday: 86 °F (at 9:50 AM)
Minimum temperature yesterday: 79 °F (at 5:50 AM)
Average temperature yesterday: 84 °F

Past Weeks' High & Low Weather Summary

 TemperatureHumidityPressure
High88 °F (Jul 24, 2:50 PM)89% (Jul 24, 6:50 AM)29.89 "Hg (Jul 24, 6:50 AM)
Low77 °F (Jul 15, 6:50 AM)55% (Jul 14, 1:50 PM)29.71 "Hg (Jul 15, 5:50 AM)
Average83 °F67%29.78 "Hg
* Reported Jul 13 10:50 PM — Jul 28 10:50 PM, Bat Yam, Weather by CustomWeather, © 2014

Note: Actual official high and low records may vary slightly from our data, if they occured in-between our weather recording intervals... More about our weather records

Advertising

Bat Yam weather history for previous 24 hours

 ConditionsComfort  
Time TempWeatherWind HumidityBarometerVisibility
10:50 PM
Jul 28
81 °FPassing clouds.3 mph79%29.83 "HgN/A
9:50 PM81 °FPassing clouds.6 mph79%29.83 "HgN/A
8:50 PM82 °FPassing clouds.6 mph74%29.83 "HgN/A
7:50 PM81 °FPartly sunny.7 mph79%29.83 "HgN/A
6:50 PM82 °FPartly sunny.7 mph74%29.83 "HgN/A
5:50 PM84 °FPartly sunny.9 mph70%29.83 "HgN/A
4:50 PM86 °FPartly sunny.9 mph66%29.83 "HgN/A
3:50 PM86 °FPartly sunny.10 mph66%29.83 "HgN/A
2:50 PM86 °FPartly sunny.10 mph62%29.86 "HgN/A
1:50 PM86 °FPassing clouds.9 mph62%29.86 "HgN/A
12:50 PM86 °FPassing clouds.9 mph62%29.89 "HgN/A
11:50 AM86 °FPassing clouds.10 mph62%29.89 "HgN/A
10:50 AM86 °FPassing clouds.7 mph59%29.89 "HgN/A
9:50 AM86 °FPassing clouds.7 mph62%29.89 "HgN/A
8:50 AM84 °FPassing clouds.5 mph66%29.89 "HgN/A
7:50 AM82 °FScattered clouds.3 mph74%29.89 "HgN/A
6:50 AM79 °FPassing clouds.5 mph74%29.86 "HgN/A
5:50 AM79 °FPassing clouds.2 mph74%29.86 "HgN/A
Weather by CustomWeather, © 2014

See weather overviewHow to use our weather pages